Location: Kershaw
(34.5481°N, 80.5823°W)
Time: 02:28:52
(UTC+00:00)

Explorer 7 - Pass Details

Date: 03 October 2022
Orbit: 481 x 665 km, 50.3° (Epoch: 01 December)

Event Time Altitude Azimuth Distance (km) Brightness Sun altitude
Rises 21:20:48 0° 316° (NW) 2,920 10.8 19.8°
Reaches altitude 10° 21:23:22 10° 326° (NNW) 1,981 9.9 19.3°
Maximum altitude 21:27:28 32° 31° (NNE) 1,018 8.0 18.5°
Drops below altitude 10° 21:31:20 10° 95° (E) 1,868 9.0 17.8°
Sets 21:33:42 0° 106° (ESE) 2,726 9.9 17.3°
